EW1135 Weather Reports


time (UTC)temp
F
wind
direction
speed
knots
gust
knots
rain 1hr
in
rain 24hr
in
rain mn
in
humidity
%
barometer
mb
20260505124524 53 241 3.5 0.0 0.00 0.00 0.00 90 1013.3
20260505123022 53 208 2.6 0.0 0.00 0.00 0.00 90 1013.3
20260505121526 53 231 2.6 0.0 0.00 0.00 0.00 89 1013.3
20260505120048 54 233 5.2 0.0 0.00 0.00 0.00 89 1013.2
20260505114522 54 239 6.1 0.0 0.00 0.00 0.00 90 1013.2
20260505113021 54 227 5.2 0.0 0.00 0.00 0.00 89 1013.2
20260505111520 54 230 4.3 0.0 0.00 0.00 0.00 89 1013.2
20260505101620 54 245 6.1 0.0 0.00 0.00 0.00 89 1013.0
20260505100002 54 235 7.0 0.0 0.00 0.00 0.00 89 1013.1
20260505094600 54 239 8.7 0.0 0.00 0.00 0.00 89 1013.0
20260505093044 54 243 8.7 0.0 0.00 0.00 0.00 88 1012.9
20260505091543 54 218 6.1 0.0 0.00 0.00 0.00 88 1012.8
20260505090039 54 227 8.7 0.0 0.00 0.00 0.00 89 1012.7
20260505084529 54 219 9.6 0.0 0.00 0.00 0.00 89 1012.8
20260505083027 54 228 7.8 0.0 0.00 0.00 0.00 89 1012.8
20260505081530 54 212 9.6 0.0 0.00 0.00 0.00 89 1012.7
20260505080028 53 219 7.8 0.0 0.00 0.00 0.00 89 1012.9
20260505074525 54 246 7.8 0.0 0.00 0.00 0.00 89 1013.0
20260505073040 54 233 10.4 0.0 0.00 0.00 0.00 89 1012.9
20260505071522 54 232 11.3 0.0 0.00 0.00 0.00 89 1012.9
20260505070009 54 245 9.6 0.0 0.00 0.00 0.00 89 1013.0
20260505064523 54 243 10.4 0.0 0.00 0.00 0.00 88 1013.1
20260505063007 54 239 10.4 0.0 0.00 0.00 0.00 88 1012.9
20260505061515 54 241 9.6 0.0 0.00 0.00 0.00 88 1012.8
20260505060007 54 246 9.6 0.0 0.00 0.00 0.00 88 1012.9
20260505054506 54 246 9.6 0.0 0.00 0.00 0.00 88 1013.1
20260505053005 54 241 10.4 0.0 0.00 0.00 0.00 88 1013.2
20260505051506 54 245 11.3 0.0 0.00 0.00 0.00 88 1013.1
20260505041557 54 239 12.2 0.0 0.00 0.00 0.00 87 1012.7
20260505040049 54 240 12.2 0.0 0.00 0.00 0.00 87 1012.4
20260505034547 55 227 10.4 0.0 0.00 0.00 0.00 86 1012.3
20260505033048 55 249 11.3 0.0 0.00 0.00 0.00 86 1012.2
20260505031604 55 249 12.2 0.0 0.00 0.00 0.00 86 1012.1
20260505030032 55 236 12.2 0.0 0.00 0.00 0.00 86 1012.0
20260505024538 55 247 11.3 0.0 0.00 0.00 0.00 86 1012.0
20260505023031 55 247 12.2 0.0 0.00 0.00 0.00 86 1012.0
20260505021530 55 235 10.4 0.0 0.00 0.00 0.00 86 1011.9
20260505020032 55 230 10.4 0.0 0.00 0.00 0.00 86 1011.9
20260505014535 56 237 11.3 0.0 0.00 0.00 0.00 85 1011.9
20260505013027 56 235 12.2 0.0 0.00 0.00 0.00 85 1012.0
20260505011532 56 243 13.0 0.0 0.00 0.00 0.00 85 1012.2
20260505010014 56 236 13.0 0.0 0.00 0.00 0.00 85 1012.4
20260505004529 57 230 13.9 0.0 0.00 0.00 0.00 84 1012.4
20260505003012 58 237 13.0 0.0 0.00 0.00 0.00 84 1012.5
20260505001512 58 226 13.0 0.0 0.00 0.00 0.00 84 1012.4
20260505000020 58 221 13.9 0.0 0.00 0.00 0.00 84 1012.5
20260504234510 58 241 13.9 0.0 0.00 0.00 0.00 84 1012.5
20260504233010 58 237 14.8 0.0 0.00 0.00 0.00 84 1012.5
20260504231508 58 239 14.8 0.0 0.00 0.00 0.00 85 1012.5
20260504230106 58 245 13.9 0.0 0.00 0.00 0.00 85 1012.6
20260504224554 58 223 13.9 0.0 0.00 0.00 0.00 86 1012.8
20260504223053 58 221 13.0 0.0 0.00 0.00 0.00 86 1012.8
20260504221559 58 244 13.9 0.0 0.00 0.00 0.00 87 1013.0
20260504220050 57 231 14.8 0.0 0.00 0.00 0.00 87 1013.2
20260504214550 57 227 13.9 0.0 0.00 0.00 0.00 88 1013.2
20260504213049 57 213 13.0 0.0 0.00 0.00 0.00 88 1013.2
20260504211548 57 237 13.9 0.0 0.00 0.00 0.00 88 1013.4
20260504210034 57 245 13.9 0.0 0.00 0.00 0.00 88 1013.3
20260504204537 57 240 14.8 0.0 0.00 0.00 0.00 88 1013.3
20260504203033 57 229 13.9 0.0 0.00 0.00 0.00 89 1013.4
20260504201531 57 241 13.0 0.0 0.00 0.00 0.00 89 1013.4
20260504200029 56 231 13.9 0.0 0.00 0.00 0.00 89 1013.3
20260504194529 56 235 12.2 0.0 0.00 0.00 0.00 89 1013.3
20260504193028 56 210 14.8 0.0 0.00 0.00 0.00 89 1013.0
20260504191526 55 235 14.8 0.0 0.00 0.00 0.00 89 1013.0
20260504190011 55 232 13.9 0.0 0.00 0.00 0.00 90 1013.0
20260504184510 55 229 12.2 0.0 0.00 0.00 0.00 89 1013.3
20260504183006 56 240 12.2 0.0 0.00 0.00 0.00 90 1013.2
20260504181507 55 225 11.3 0.0 0.00 0.00 0.00 90 1013.1
20260504180008 54 227 13.9 0.0 0.00 0.00 0.00 90 1013.0
20260504174504 54 220 13.0 0.0 0.00 0.00 0.00 90 1013.0
20260504173003 54 240 11.3 0.0 0.00 0.00 0.00 90 1013.0
20260504171502 53 231 15.6 0.0 0.00 0.00 0.00 90 1012.9